This demonstration page uses our WeatherBlox Daily Observations layout. Learn more.

Left ArrowRight Arrow

39.92423, -83.80882

Hourly Observations for January 14, 2019

Temp ( °F °C ) Dew Point ( °F °C ) Humidity (%) Winds ( mph kmh ) Pressure ( in mb ) Visibility ( mi km ) Precip ( " mm )
12:43 am 00:43 Cloudy 27 -3 25 -4 93 93 NNE 9 15 30.36 1028 10 16 N/A
12:56 am 00:56 Cloudy 27 -2.8 25 -3.9 92 92 NNE 9 15 30.30 1026 10 16 N/A
1:56 am 01:56 Cloudy 27 -2.8 25 -3.9 92 92 N 7 11 30.31 1027 10 16 N/A
2:56 am 02:56 Cloudy 27 -2.8 25 -3.9 92 92 N 6 9 30.33 1027 10 16 N/A
3:56 am 03:56 Cloudy 27 -2.8 25 -3.9 92 92 N 5 7 30.33 1027 10 16 N/A
4:08 am 04:08 Cloudy 27 -3 25 -4 93 93 NNW 5 7 30.39 1029 10 16 N/A
4:56 am 04:56 Cloudy 26 -3.3 24 -4.4 92 92 NNW 5 7 30.33 1027 10 16 N/A
5:56 am 05:56 Cloudy 26 -3.3 24 -4.4 92 92 NNW 7 11 30.33 1027 10 16 N/A
6:56 am 06:56 Cloudy 26 -3.3 24 -4.4 92 92 N 6 9 30.34 1028 10 16 N/A
7:56 am 07:56 Cloudy 25 -3.9 24 -4.4 96 96 NW 7 11 30.35 1028 10 16 N/A
8:56 am 08:56 Cloudy 25 -3.9 23 -5 92 92 N 8 13 30.36 1028 10 16 N/A
9:56 am 09:56 Cloudy 25 -3.9 23 -5 92 92 NNW 8 13 30.38 1029 9 14 N/A
10:17 am 10:17 Cloudy 25 -4 23 -5 93 93 NNW 8 13 30.39 1029 7 11 N/A
10:56 am 10:56 Cloudy 25 -3.9 23 -5 92 92 NNW 5 7 30.39 1029 10 16 N/A
11:54 am 11:54 Cloudy 25 -4 21 -6 86 86 NNW 7 11 30.39 1029 10 16 N/A
11:56 am 11:56 Cloudy 25 -3.9 22 -5.6 88 88 NW 5 7 30.38 1029 10 16 N/A
12:56 pm 12:56 Cloudy 26 -3.3 22 -5.6 84 84 N N/A 30.35 1028 10 16 N/A
1:56 pm 13:56 Cloudy 27 -2.8 22 -5.6 81 81 VRB 3 6 30.33 1027 10 16 0.01 0.25
2:08 pm 14:08 Cloudy 27 -3 21 -6 80 80 VRB 3 6 30.36 1028 10 16 0.01 0.25
2:56 pm 14:56 Cloudy 26 -3.3 20 -6.7 78 78 N 3 6 30.32 1027 10 16 0.03 0.76
3:52 pm 15:52 Partly Cloudy 27 -3 19 -7 74 74 W 7 11 30.36 1028 10 16 N/A
3:56 pm 15:56 Mostly Sunny 27 -2.8 19 -7.2 72 72 WNW 6 9 30.32 1027 10 16 N/A
4:56 pm 16:56 Sunny 25 -3.9 17 -8.3 72 72 N N/A 30.31 1027 10 16 N/A
5:56 pm 17:56 Clear 21 -6.1 16 -8.9 81 81 N N/A 30.32 1027 10 16 N/A
6:56 pm 18:56 Clear 19 -7.2 17 -8.3 92 92 WNW 5 7 30.33 1027 10 16 N/A
7:56 pm 19:56 Clear 17 -8.3 16 -8.9 95 95 W 3 6 30.34 1027 7 11 N/A
8:35 pm 20:35 Clear with Mist and Fog 12 -11 12 -11 100 100 N N/A 30.39 1029 1 2 N/A
8:37 pm 20:37 Mostly Cloudy with Freezing Fog 12 -11 10 -12 92 92 N N/A 30.39 1029 1 1 N/A
8:46 pm 20:46 Clear with Freezing Fog 10 -12 9 -13 92 92 N N/A 30.39 1029 0 0 N/A
8:56 pm 20:56 Clear with Freezing Fog 9 -12.8 8 -13.3 96 96 N N/A 30.33 1027 0 0 N/A
9:07 pm 21:07 Mostly Cloudy with Freezing Fog 9 -13 7 -14 92 92 N N/A 30.39 1029 0 0 N/A
9:41 pm 21:41 Clear with Freezing Fog 7 -14 5 -15 92 92 N N/A 30.39 1029 0 0 N/A
9:56 pm 21:56 Clear with Freezing Fog 7 -13.9 5 -15 91 91 N N/A 30.34 1027 0 0 N/A
10:23 pm 22:23 Clear with Freezing Fog 7 -14 3 -16 85 85 N N/A 30.39 1029 1 1 N/A
10:36 pm 22:36 Mostly Cloudy with Freezing Fog 7 -14 3 -16 85 85 N N/A 30.39 1029 1 1 N/A
10:41 pm 22:41 Clear with Mist and Fog 7 -14 5 -15 92 92 N N/A 30.39 1029 1 2 N/A
10:50 pm 22:50 Clear with Freezing Fog 5 -15 3 -16 92 92 N N/A 30.42 1030 1 1 N/A
10:56 pm 22:56 Clear with Freezing Fog 5 -15 3 -16.1 91 91 N N/A 30.35 1028 1 1 N/A
11:17 pm 23:17 Clear with Mist and Fog 7 -14 5 -15 92 92 SSW 5 7 30.39 1029 1 2 N/A
11:28 pm 23:28 Clear with Mist and Fog 7 -14 5 -15 92 92 SSW 3 6 30.39 1029 1 1 N/A
11:52 pm 23:52 Clear with Mist and Fog 3 -16 1 -17 92 92 N N/A 30.42 1030 1 2 N/A
11:56 pm 23:56 Clear with Mist and Fog 4 -15.6 1 -17.2 88 88 N N/A 30.34 1027 2 3 N/A

Powered by AerisWeather